| time (UTC) | temp F | wind direction | speed MPH | gust MPH | rain 1hr in | rain 24hr in | rain mn in | humidity % | barometer mb |
| 20260506033536 | 52 | 114 | 2.0 | 4.0 | 0.00 | 0.00 | 0.00 | 96 | 1006.2 |
| 20260506032525 | 52 | 98 | 2.0 | 4.0 | 0.00 | 0.00 | 0.00 | 96 | 1006.3 |
| 20260506031516 | 52 | 82 | 2.0 | 5.0 | 0.00 | 0.00 | 0.00 | 95 | 1006.2 |
| 20260506030531 | 52 | 104 | 2.0 | 4.0 | 0.00 | 0.00 | 0.00 | 95 | 1006.3 |
| 20260506025520 | 52 | 112 | 2.0 | 4.0 | 0.00 | 0.00 | 0.00 | 95 | 1006.4 |
| 20260506024532 | 52 | 85 | 2.0 | 4.0 | 0.00 | 0.00 | 0.00 | 95 | 1006.4 |
| 20260506023523 | 52 | 93 | 2.0 | 4.0 | 0.00 | 0.00 | 0.00 | 95 | 1006.4 |
| 20260506022535 | 52 | 92 | 2.0 | 6.0 | 0.00 | 0.00 | 0.00 | 95 | 1006.5 |
| 20260506021530 | 52 | 67 | 2.0 | 4.0 | 0.00 | 0.00 | 0.00 | 95 | 1006.5 |
| 20260506020518 | 52 | 112 | 2.0 | 6.0 | 0.00 | 0.00 | 0.00 | 95 | 1006.5 |
| 20260506015529 | 52 | 63 | 2.0 | 4.0 | 0.00 | 0.00 | 0.00 | 95 | 1006.5 |
| 20260506014521 | 52 | 89 | 2.0 | 6.0 | 0.00 | 0.00 | 0.00 | 94 | 1006.6 |
| 20260506013532 | 52 | 118 | 2.0 | 6.0 | 0.00 | 0.00 | 0.00 | 95 | 1006.7 |
| 20260506012524 | 52 | 86 | 2.0 | 6.0 | 0.00 | 0.00 | 0.00 | 95 | 1006.7 |
| 20260506011536 | 52 | 110 | 2.0 | 6.0 | 0.00 | 0.00 | 0.00 | 95 | 1006.8 |
| 20260506010527 | 52 | 45 | 3.0 | 6.0 | 0.00 | 0.00 | 0.00 | 95 | 1006.8 |
| 20260506005519 | 52 | 110 | 3.0 | 6.0 | 0.00 | 0.00 | 0.00 | 95 | 1006.7 |
| 20260506004531 | 52 | 128 | 2.0 | 6.0 | 0.00 | 0.00 | 0.00 | 95 | 1006.7 |
| 20260506003525 | 52 | 79 | 2.0 | 6.0 | 0.00 | 0.00 | 0.00 | 96 | 1006.7 |
| 20260506002534 | 52 | 62 | 2.0 | 5.0 | 0.00 | 0.00 | 0.00 | 96 | 1006.9 |
| 20260506001525 | 52 | 128 | 3.0 | 6.0 | 0.00 | 0.00 | 0.00 | 96 | 1007.0 |
| 20260506000517 | 52 | 76 | 2.0 | 4.0 | 0.00 | 0.00 | 0.00 | 96 | 1007.0 |
| 20260505235528 | 52 | 101 | 2.0 | 5.0 | 0.00 | 0.00 | 0.00 | 95 | 1007.2 |
| 20260505234523 | 52 | 140 | 4.0 | 10.0 | 0.00 | 0.00 | 0.00 | 95 | 1007.3 |
| 20260505233532 | 52 | 83 | 2.0 | 7.0 | 0.00 | 0.00 | 0.00 | 95 | 1007.2 |
| 20260505232527 | 52 | 63 | 3.0 | 6.0 | 0.00 | 0.00 | 0.00 | 96 | 1007.1 |
| 20260505231535 | 52 | 140 | 3.0 | 5.0 | 0.00 | 0.00 | 0.00 | 96 | 1007.0 |
| 20260505230527 | 52 | 41 | 2.0 | 4.0 | 0.00 | 0.00 | 0.00 | 96 | 1007.0 |
| 20260505225521 | 52 | 79 | 3.0 | 9.0 | 0.00 | 0.00 | 0.00 | 96 | 1007.1 |
| 20260505224530 | 51 | 56 | 2.0 | 4.0 | 0.00 | 0.00 | 0.00 | 96 | 1007.0 |
| 20260505223521 | 51 | 171 | 2.0 | 6.0 | 0.00 | 0.00 | 0.00 | 96 | 1007.1 |
| 20260505222533 | 51 | 117 | 2.0 | 5.0 | 0.00 | 0.00 | 0.00 | 96 | 1007.1 |
| 20260505221527 | 51 | 135 | 3.0 | 7.0 | 0.00 | 0.00 | 0.00 | 96 | 1007.1 |
| 20260505220519 | 51 | 65 | 2.0 | 6.0 | 0.00 | 0.00 | 0.00 | 96 | 1007.1 |
| 20260505215527 | 52 | 53 | 3.0 | 6.0 | 0.00 | 0.00 | 0.00 | 96 | 1007.3 |
| 20260505214521 | 51 | 141 | 1.0 | 6.0 | 0.00 | 0.00 | 0.00 | 96 | 1007.2 |
| 20260505213533 | 51 | 129 | 3.0 | 8.0 | 0.00 | 0.00 | 0.00 | 96 | 1007.3 |
| 20260505212525 | 51 | 158 | 3.0 | 6.0 | 0.00 | 0.00 | 0.00 | 96 | 1007.2 |
| 20260505211533 | 51 | 75 | 3.0 | 6.0 | 0.00 | 0.00 | 0.00 | 96 | 1007.3 |
| 20260505210525 | 51 | 78 | 3.0 | 7.0 | 0.00 | 0.00 | 0.00 | 96 | 1007.5 |
| 20260505205517 | 51 | 96 | 3.0 | 6.0 | 0.00 | 0.00 | 0.00 | 96 | 1007.6 |
| 20260505204532 | 51 | 114 | 3.0 | 6.0 | 0.00 | 0.00 | 0.00 | 96 | 1007.6 |
| 20260505203520 | 51 | 137 | 2.0 | 5.0 | 0.00 | 0.00 | 0.00 | 96 | 1007.6 |
| 20260505202533 | 51 | 109 | 1.0 | 4.0 | 0.00 | 0.00 | 0.00 | 95 | 1007.5 |
| 20260505201524 | 51 | 10 | 0.0 | 2.0 | 0.00 | 0.00 | 0.00 | 95 | 1007.4 |
| 20260505200535 | 52 | 105 | 1.0 | 3.0 | 0.00 | 0.00 | 0.00 | 94 | 1007.1 |
| 20260505195529 | 52 | 303 | 1.0 | 3.0 | 0.00 | 0.00 | 0.00 | 93 | 1006.8 |
| 20260505194517 | 52 | 268 | 0.0 | 3.0 | 0.00 | 0.00 | 0.00 | 92 | 1006.7 |
| 20260505193529 | 52 | 280 | 2.0 | 9.0 | 0.00 | 0.00 | 0.00 | 91 | 1006.8 |
| 20260505192520 | 52 | 277 | 3.0 | 9.0 | 0.00 | 0.00 | 0.00 | 94 | 1006.9 |
| 20260505191532 | 52 | 26 | 1.0 | 4.0 | 0.00 | 0.00 | 0.00 | 95 | 1007.3 |
| 20260505190526 | 52 | 56 | 2.0 | 4.0 | 0.00 | 0.00 | 0.00 | 94 | 1007.6 |
| 20260505185533 | 52 | 47 | 1.0 | 3.0 | 0.00 | 0.00 | 0.00 | 94 | 1007.7 |
| 20260505184524 | 52 | 102 | 3.0 | 6.0 | 0.00 | 0.00 | 0.00 | 93 | 1007.7 |
| 20260505183536 | 52 | 97 | 2.0 | 6.0 | 0.00 | 0.00 | 0.00 | 92 | 1007.8 |
| 20260505182528 | 53 | 108 | 3.0 | 7.0 | 0.00 | 0.00 | 0.00 | 92 | 1008.1 |
| 20260505181519 | 54 | 116 | 2.0 | 7.0 | 0.00 | 0.00 | 0.00 | 88 | 1008.2 |
| 20260505180530 | 57 | 116 | 5.0 | 18.0 | 0.00 | 0.00 | 0.00 | 84 | 1008.1 |
| 20260505175521 | 58 | 297 | 3.0 | 7.0 | 0.00 | 0.00 | 0.00 | 88 | 1006.8 |
| 20260505174533 | 58 | 307 | 3.0 | 9.0 | 0.00 | 0.00 | 0.00 | 86 | 1006.8 |
| 20260505173525 | 58 | 303 | 3.0 | 6.0 | 0.00 | 0.00 | 0.00 | 85 | 1006.8 |
| 20260505172536 | 59 | 294 | 3.0 | 9.0 | 0.00 | 0.00 | 0.00 | 85 | 1006.8 |
| 20260505171525 | 59 | 309 | 6.0 | 14.0 | 0.00 | 0.00 | 0.00 | 84 | 1006.8 |
| 20260505170536 | 59 | 314 | 4.0 | 7.0 | 0.00 | 0.00 | 0.00 | 83 | 1006.9 |
| 20260505165527 | 59 | 304 | 4.0 | 8.0 | 0.00 | 0.00 | 0.00 | 83 | 1007.0 |
| 20260505164518 | 60 | 300 | 4.0 | 9.0 | 0.00 | 0.00 | 0.00 | 82 | 1007.1 |
| 20260505163533 | 60 | 311 | 3.0 | 7.0 | 0.00 | 0.00 | 0.00 | 83 | 1007.1 |
| 20260505162522 | 60 | 305 | 3.0 | 5.0 | 0.00 | 0.00 | 0.00 | 83 | 1007.4 |
| 20260505161532 | 60 | 295 | 2.0 | 4.0 | 0.00 | 0.00 | 0.00 | 83 | 1007.5 |
| 20260505160522 | 59 | 295 | 3.0 | 6.0 | 0.00 | 0.00 | 0.00 | 83 | 1007.4 |
| 20260505152531 | 61 | 300 | 4.0 | 8.0 | 0.00 | 0.00 | 0.00 | 76 | 1007.8 |
| 20260505151520 | 62 | 301 | 3.0 | 11.0 | 0.00 | 0.00 | 0.00 | 74 | 1007.7 |
| 20260505150531 | 62 | 319 | 6.0 | 14.0 | 0.00 | 0.00 | 0.00 | 73 | 1008.0 |
| 20260505140519 | 64 | 300 | 4.0 | 12.0 | 0.00 | 0.00 | 0.00 | 67 | 1008.3 |
| 20260505124528 | 64 | 301 | 5.0 | 12.0 | 0.00 | 0.00 | 0.00 | 70 | 1008.9 |
| 20260505123520 | 64 | 291 | 6.0 | 12.0 | 0.00 | 0.00 | 0.00 | 71 | 1008.9 |
| 20260505122536 | 63 | 293 | 5.0 | 8.0 | 0.00 | 0.00 | 0.00 | 73 | 1009.1 |
| 20260505121523 | 62 | 291 | 5.0 | 9.0 | 0.00 | 0.00 | 0.00 | 75 | 1009.2 |
| 20260505120534 | 63 | 293 | 5.0 | 9.0 | 0.00 | 0.00 | 0.00 | 74 | 1009.1 |
| 20260505115540 | 64 | 298 | 6.0 | 12.0 | 0.00 | 0.00 | 0.00 | 71 | 1009.1 |
| 20260505114520 | 64 | 295 | 5.0 | 10.0 | 0.00 | 0.00 | 0.00 | 70 | 1009.2 |
| 20260505113528 | 66 | 312 | 6.0 | 11.0 | 0.00 | 0.00 | 0.00 | 67 | 1009.3 |
| 20260505112520 | 66 | 306 | 5.0 | 13.0 | 0.00 | 0.00 | 0.00 | 65 | 1009.3 |
| 20260505111535 | 65 | 295 | 6.0 | 12.0 | 0.00 | 0.00 | 0.00 | 65 | 1009.4 |
| 20260505110527 | 65 | 299 | 5.0 | 12.0 | 0.00 | 0.00 | 0.00 | 66 | 1009.5 |
| 20260505101520 | 64 | 307 | 4.0 | 9.0 | 0.00 | 0.00 | 0.00 | 69 | 1010.0 |
| 20260505100530 | 63 | 297 | 5.0 | 9.0 | 0.00 | 0.00 | 0.00 | 72 | 1009.9 |
| 20260505095522 | 63 | 288 | 4.0 | 8.0 | 0.00 | 0.00 | 0.00 | 72 | 1010.1 |
| 20260505094533 | 61 | 310 | 3.0 | 8.0 | 0.00 | 0.00 | 0.00 | 73 | 1010.1 |
| 20260505093524 | 61 | 300 | 6.0 | 10.0 | 0.00 | 0.00 | 0.00 | 74 | 1010.2 |
| 20260505092516 | 61 | 300 | 5.0 | 9.0 | 0.00 | 0.00 | 0.00 | 74 | 1010.2 |
| 20260505091528 | 60 | 308 | 4.0 | 8.0 | 0.00 | 0.00 | 0.00 | 77 | 1010.4 |
| 20260505090520 | 60 | 300 | 5.0 | 9.0 | 0.00 | 0.00 | 0.00 | 78 | 1010.4 |
| 20260505085532 | 61 | 292 | 4.0 | 9.0 | 0.00 | 0.00 | 0.00 | 76 | 1010.6 |
| 20260505084523 | 60 | 306 | 1.0 | 3.0 | 0.00 | 0.00 | 0.00 | 77 | 1010.6 |
| 20260505083535 | 59 | 289 | 1.0 | 3.0 | 0.00 | 0.00 | 0.00 | 78 | 1010.6 |
| 20260505082526 | 58 | 309 | 1.0 | 3.0 | 0.00 | 0.00 | 0.00 | 81 | 1010.7 |
| 20260505081518 | 58 | 312 | 3.0 | 4.0 | 0.00 | 0.00 | 0.00 | 81 | 1010.8 |
| 20260505080532 | 57 | 310 | 1.0 | 2.0 | 0.00 | 0.00 | 0.00 | 82 | 1010.8 |
| 20260505075523 | 57 | 101 | 2.0 | 5.0 | 0.00 | 0.00 | 0.00 | 83 | 1010.7 |
| 20260505074532 | 58 | 150 | 2.0 | 4.0 | 0.00 | 0.00 | 0.00 | 82 | 1010.8 |
| 20260505073523 | 57 | 56 | 2.0 | 5.0 | 0.00 | 0.00 | 0.00 | 85 | 1010.8 |
| 20260505072538 | 56 | 154 | 1.0 | 4.0 | 0.00 | 0.00 | 0.00 | 86 | 1010.8 |
| 20260505071527 | 56 | 136 | 2.0 | 5.0 | 0.00 | 0.00 | 0.00 | 86 | 1010.8 |
| 20260505070519 | 56 | 174 | 1.0 | 4.0 | 0.00 | 0.00 | 0.00 | 87 | 1010.9 |
| 20260505065531 | 55 | 158 | 2.0 | 4.0 | 0.00 | 0.00 | 0.00 | 88 | 1010.8 |
| 20260505064522 | 54 | 127 | 2.0 | 4.0 | 0.00 | 0.00 | 0.00 | 92 | 1010.6 |
| 20260505063536 | 53 | 300 | 1.0 | 3.0 | 0.00 | 0.00 | 0.00 | 96 | 1010.8 |
| 20260505062525 | 52 | 288 | 1.0 | 3.0 | 0.00 | 0.00 | 0.00 | 96 | 1010.8 |
| 20260505061516 | 52 | 292 | 1.0 | 3.0 | 0.00 | 0.00 | 0.00 | 96 | 1010.9 |
| 20260505060531 | 52 | 308 | 1.0 | 4.0 | 0.00 | 0.00 | 0.00 | 96 | 1011.0 |
| 20260505055518 | 52 | 301 | 2.0 | 4.0 | 0.00 | 0.00 | 0.00 | 96 | 1011.1 |
| 20260505054530 | 52 | 299 | 2.0 | 3.0 | 0.00 | 0.00 | 0.00 | 96 | 1010.9 |
| 20260505053522 | 52 | 348 | 1.0 | 3.0 | 0.00 | 0.00 | 0.00 | 95 | 1010.9 |
| 20260505052533 | 52 | 289 | 1.0 | 4.0 | 0.00 | 0.00 | 0.00 | 95 | 1010.9 |
| 20260505051524 | 52 | 317 | 2.0 | 4.0 | 0.00 | 0.00 | 0.00 | 94 | 1011.0 |
| 20260505050517 | 52 | 306 | 2.0 | 4.0 | 0.00 | 0.00 | 0.00 | 94 | 1011.0 |
| 20260505041534 | 52 | 298 | 3.0 | 6.0 | 0.00 | 0.00 | 0.00 | 92 | 1011.5 |
| 20260505040525 | 52 | 305 | 4.0 | 8.0 | 0.00 | 0.00 | 0.00 | 92 | 1011.4 |
| 20260505035516 | 53 | 315 | 4.0 | 9.0 | 0.00 | 0.00 | 0.00 | 91 | 1011.5 |
| 20260505034528 | 53 | 307 | 4.0 | 6.0 | 0.00 | 0.00 | 0.00 | 91 | 1011.6 |